Showing default

WORLDVIEW 2, 35946

Orbit data source: Space-Track

WORLDVIEW 2, 35946 is a payload satellite owned by DigitalGlobe (US) in SSO that was launched on Thu, 08 Oct 2009 UTC via a DELTA 7920-10C launch vehicle from the Air Force Western Test Range (AFWTR). Payload-class satellites include a variety of spacecraft equipped with specific instruments for various scientific and technological missions. These include communications satellites like Starlink; space stations such as the ISS; scientific satellites like the Hubble; Earth observation satellites from companies like Planet Labs, Umbra, and HawkEye 360; GPS; miniature CubeSats for education and research; and military/defense satellites.

Loading next visibility...
Identifier
35946, 2009-055A
Orbit
SSO
Country
Flag of USUS
Related business
Manufacturer
Ball
Mission
Operational Commercial Imaging
Bus & Motor
BCP-5000, Unknown motor
Mass
2,615 kg wet, ~2,200 kg dry
Launch date (UTC)
2009-10-08 (17 years ago)
Launch vehicle
DELTA 7920-10C
Launch site
Air Force Western Test Range (AFWTR)
Object type
Payload
Rocket body
Debris
Shape & HBR
Hex Cyl + 2 Pan, 4.4 m
Radar Cross Section
13.188 m², Large (>1 m²)

Expand to show TLE details & history
Last TLE update: 7 hours ago

TLE from 7 hours ago
0 WORLDVIEW 2
1 35946U 09055A   26132.81452025  .00000053  00000-0  32054-4 0  9993
2 35946  98.4683 206.7596 0003698 341.2285  18.8765 14.37933800870562
Epoch: 2026-05-12T19:32Z
TLE epoch observation values (Epoch: 2026-05-12T19:32:54.549Z)
Latitude
-0.00005°
Longitude
42.94883°
Altitude
765.78 km
Speed
7.473 km/s
True Right ascension
13h 47m 02s
True Declination
0° 00' 00"
Sunlit
Object was in full shadow at epoch
Visualization orbit readout
Latitude
Unknown
Longitude
Unknown
Altitude
Unknown
Speed
Unknown
Apparent Right ascension
Unknown
Apparent Declination
Unknown
Sunlit
N/A
Visualization observer readout
Local Sidereal Time
11:17:51
Azimuth
Unknown
Elevation
Unknown
Doppler factor
Unknown
Orbital elements
Apogee altitude
765.097 km
Perigee altitude
759.816 km
Semi-major axis
7,140.594 km
Eccentricity
0.00037
Inclination
98.4683°
RAAN
206.7596°
Arg. of periapsis
341.2285°
True anomaly
18.89022°
Mean anomaly
18.8765°
Eccentric anomaly
18.88336°
Mean motion
3.59701 °/min
Orbital period
100.08 mins
BSTAR
0.000032054

Documentation

Showing up to 5 results
|